User: anonymous
Location: Oshawa
(43.9000°N, 78.8670°W)
Time: 14:58:00
(UTC-04:00)
Language:

Cosmos 1408 Rocket - Orbit

View from above orbital plane
View from above orbital plane
View from above satellite
View from above satellite

Ground track
Ground track

The orbit data is extracted from the following two-line orbital elements,

1 13553U 82092B   14105.96477983  .00000502  00000-0  58037-4 0  8748
2 13553 082.5703 232.7792 0020270 269.7416 222.7075 14.83480825705271
Epoch (UTC): 15 April 2014 23:09:16
Eccentricity: 0.0020270
inclination: 82.5703°
perigee height: 604 km
apogee height: 632 km
right ascension of ascending node: 232.7792°
argument of perigee: 269.7416°
revolutions per day: 14.83480825
mean anomaly at epoch: 222.7075°
orbit number at epoch: 70527

The dashed part of the orbit path shows where the satellite is in the earth's shadow,  

DLR